Welcome to the New NWS' Forecast!
Most changes are behind the scenes, but click here for differences you might notice.
Latest weather observations around

Cloquet Carlton County Airport (KCOQ)

Using English Units (Switch to International System of Units)
Date/ Time (CDT) Wind (mph) Vis. (mi) Weather Sky Cond. Temp (°F) Rel. Humidity Wind Chill (°F) Heat Index (°F) Pressure Precip. (in)
Air Dwpt 6 hour Altimeter (inHg) Sea level (inHg) 1 hr 3 hr 6 hr
Max Min
Notice The following observation data may not be complete
Aug 20 04:15   7 Clear CLR          %              
Aug 20 03:55 Calm 7 Partly Cloudy SCT034 SCT085 64 61     88%     29.98        
Aug 20 03:35 N 6 7 Rain SCT038 SCT047 SCT085 64 61     88%     29.98        
Aug 20 01:55 Calm 10 Clear CLR 66 63     88%     29.99        
Aug 20 00:35 N 3 10 Partly Cloudy SCT037 SCT055 68 63     83%     29.99        
Notice The following observation data may not be complete
Aug 20 00:15   10 Cloudy SCT037 BKN049 OVC055          %              
Aug 19 22:15 NNW 3 10 Mostly Cloudy BKN042 68 64     88%     29.98        
Aug 19 21:15 Calm 10 Clear CLR 72 64     78%   72 29.98        
Notice The following observation data may not be complete
Aug 19 20:35   10 Clear CLR          %              
Aug 19 18:35 Calm 10 Clear CLR 77 61     57%   77 29.95        
Aug 19 16:35 Calm 10 Partly Cloudy SCT038 SCT048 79 61     54%   79 29.95        
Aug 19 16:15 SSW 5 10 Partly Cloudy SCT035 79 61     54%   79 29.95        
Notice The following observation data may not be complete
Aug 19 15:35   10 Partly Cloudy SCT035          %              
Aug 19 14:55 S 7 10 Partly Cloudy SCT032 79 63     58%   79 29.95        
Aug 19 13:35 S 5 10 Partly Cloudy SCT022 75 64     69%   76 29.95        
Aug 19 11:15 SW 3 10 Clear CLR 72 64     78%   72 29.98        
Aug 19 10:35 SSW 5 7 Clear CLR 66 64     94%     29.97        
Aug 19 07:15 Calm 5 Fog/Mist CLR 61 57     88%     29.95        
Aug 19 06:35 Calm 2.5 Fog/Mist SCT037 59 57     94%     29.96        
Notice The following observation data may not be complete
Aug 19 06:15   4 Fog/Mist BKN035          %              
Aug 19 05:15 Calm 0.25 Fog OVC002 57 55     94%     29.94        
Aug 19 04:35 Calm 0.25 Fog OVC002 57 55     94%     29.94        
Aug 19 04:15 Calm 0.5 Fog OVC002 59 55     88%     29.95        
Aug 19 02:15 Calm 0.25 Fog OVC002 61 57     88%     29.96        
Aug 19 00:15 Calm 0.25 Fog OVC002 61 57     88%     29.97        
Aug 18 23:35 ESE 3 0.25 Fog OVC002 61 57     88%     29.98        
Aug 18 23:15 Calm 0.25 Fog OVC002 61 57     88%     29.98        
Aug 18 22:55 Calm 2.5 Fog/Mist BKN002 61 57     88%     29.99        
Aug 18 20:15 ESE 3 10 Clear CLR 66 61     83%     29.99        
Notice The following observation data may not be complete
Aug 18 18:35   10 Clear CLR          %              
Aug 18 16:55 SE 3 10 Clear CLR 73 63     69%   74 30.02        
Notice The following observation data may not be complete
Aug 18 16:15   10 Clear CLR          %              
Aug 18 15:35 Calm 10 Clear CLR 72 61     69%   72 30.05        
Aug 18 14:35 SE 3 10 Clear CLR 70 61     73%     30.06        
Aug 18 14:15 ESE 6 10 Clear CLR 70 61     73%     30.07        
Aug 18 13:35 Calm 10 Clear CLR 66 61     83%     30.09        
Aug 18 11:55 ESE 6 10 Cloudy OVC010 64 57     77%     30.12        
Aug 18 11:35 ESE 6 10 Cloudy OVC010 64 57     77%     30.11        
Aug 18 10:35 E 5 10 Cloudy OVC008 63 57     83%     30.13        
Aug 18 09:55 E 5 10 Cloudy OVC006 63 57     83%     30.13        
Aug 18 09:35 ESE 5 10 Cloudy OVC006 63 57     83%     30.13        
Notice The following observation data may not be complete
Aug 18 07:35   10 Cloudy OVC006          %              
Notice The following observation data may not be complete
Aug 18 06:35   10 Cloudy OVC006          %              
Notice The following observation data may not be complete
Aug 18 05:35   10 Cloudy OVC006          %              
Aug 18 04:15 Calm 10 Cloudy OVC006 63 57     83%     30.13        
Aug 18 01:35 E 3 7 Cloudy OVC006 61 57     88%     30.14        
Notice The following observation data may not be complete
Aug 18 01:15   5 Fog/Mist OVC008          %              
Aug 18 00:35 ESE 5 7 Mostly Cloudy BKN006 61 57     88%     30.14        
Aug 17 20:35 ENE 7 10 Clear CLR 64 57     77%     30.11        
Notice The following observation data may not be complete
Aug 17 18:35   10 Clear CLR          %              
Aug 17 17:35 E 8 10 Clear CLR 72 61     69%   72 30.1        
Aug 17 15:15 E 9 10 Clear CLR 77 61     57%   77 30.09        
Aug 17 14:55 E 8 10 Clear CLR 79 61     54%   79 30.09        
Aug 17 14:35 Calm 7 Clear CLR 81 59     48%   81 30.08        
Aug 17 14:15 NNW 5 10 Clear CLR 79 59     51%   79 30.08        
Aug 17 13:55 Calm 10 Clear CLR 79 59     51%   79 30.08        
Aug 17 13:15 N 5 10 Clear CLR 79 61     54%   79 30.08        
Aug 17 12:55 NE 6 10 Clear CLR 77 61     57%   77 30.08        
Aug 17 12:35 NNE 5 10 Clear CLR 77 61     57%   77 30.09        
Aug 17 12:15 N 5 10 Clear CLR 77 59     54%   77 30.09        
Aug 17 11:55 N 5 10 Clear CLR 75 59     57%   75 30.09        
Aug 17 11:35 N 5 10 Clear CLR 75 57     54%   75 30.09        
Aug 17 11:15 N 7 10 Clear CLR 73 57     57%   73 30.09        
Aug 17 10:55 NNW 6 10 Clear CLR 72 57     60%   71 30.09        
Aug 17 10:35 NNW 6 10 Clear CLR 70 57     64%     30.09        
Aug 17 10:15 NNW 6 10 Clear CLR 68 59     73%     30.09        
Aug 17 09:55 NNW 5 10 Clear CLR 66 59     78%     30.09        
Aug 17 09:35 NNW 5 10 Clear CLR 64 59     83%     30.09        
Aug 17 09:15 NNW 7 10 Clear CLR 64 57     77%     30.08        
Aug 17 08:55 NNW 6 10 Clear CLR 63 57     83%     30.08        
Aug 17 08:35 NNW 5 10 Clear CLR 63 57     83%     30.08        
Aug 17 08:15 NNW 6 10 Clear CLR 61 57     88%     30.07        
Aug 17 07:55 NNW 5 10 Clear CLR 61 55     82%     30.07        
Aug 17 07:35 NNW 7 10 Clear CLR 59 55     88%     30.06        
Aug 17 07:15 NW 6 10 Clear CLR 59 55     88%     30.06        
Aug 17 06:55 NW 7 10 Clear CLR 59 55     88%     30.06        
Aug 17 06:35 NW 6 10 Clear CLR 59 55     88%     30.06        
Aug 17 06:15 NW 6 10 Clear CLR 57 55     94%     30.05        
Aug 17 05:55 NW 5 10 Clear CLR 57 55     94%     30.05        
Aug 17 05:36 NW 6 10 Clear CLR 57 55     94%     30.05        
Aug 17 05:15 NW 5 10 Clear CLR 59 55     88%     30.05        
Aug 17 04:55 NNW 7 10 Clear CLR 57 55     94%     30.04        
Aug 17 04:36 NW 6 10 Clear CLR 57 54     88%     30.04        
Aug 17 04:15 NW 3 10 Clear CLR 57 54     88%     30.05        
Aug 17 03:55 NW 5 10 Clear CLR 57 55     94%     30.05        
Aug 17 03:35 NW 5 10 Clear CLR 57 54     88%     30.04        
Aug 17 03:15 NW 5 10 Clear CLR 57 54     88%     30.04        
Aug 17 02:55 Calm 10 Clear CLR 57 55     94%     30.04        
Aug 17 02:35 Calm 10 Clear CLR 59 55     88%     30.04        
Aug 17 02:15 Calm 10 Clear CLR 61 55     82%     30.04        
Aug 17 01:55 Calm 10 Clear CLR 61 55     82%     30.04        
Aug 17 01:35 Calm 10 Clear CLR 59 55     88%     30.04        
Aug 17 01:15 Calm 10 Clear CLR 59 55     88%     30.04        
Aug 17 00:55 NW 5 10 Clear CLR 59 55     88%     30.04        
Aug 17 00:35 NW 3 10 Clear CLR 61 55     82%     30.04        
Aug 17 00:15 NW 3 10 Clear CLR 61 55     82%     30.03        
Aug 16 23:55 Calm 10 Clear CLR 59 55     88%     30.03        
Aug 16 23:35 Calm 10 Clear CLR 59 55     88%     30.03        
Aug 16 23:15 Calm 10 Clear CLR 61 55     82%     30.03        
Aug 16 22:55 NNW 3 10 Clear CLR 61 55     82%     30.03        
Aug 16 22:35 Calm 10 Clear CLR 61 57     88%     30.04        
Aug 16 22:15 Calm 10 Clear CLR 63 57     83%     30.04        
Aug 16 21:55 Calm 10 Clear CLR 63 57     83%     30.04        
Aug 16 21:35 Calm 10 Clear CLR 63 57     83%     30.04        
Aug 16 21:15 Calm 10 Clear CLR 64 57     77%     30.03        
Aug 16 20:55 Calm 10 Clear CLR 66 57     73%     30.03        
Aug 16 20:35 Calm 10 Clear CLR 66 59     78%     30.02        
Aug 16 20:15 Calm 10 Clear CLR 70 61     73%     30.02        
Aug 16 19:55 Calm 10 Clear CLR 72 59     65%   71 30.01        
Aug 16 19:35 Calm 10 Clear CLR 75 55     50%   75 30.01        
Aug 16 19:15 Calm 10 Clear CLR 75 55     50%   75 30.01        
Aug 16 18:55 Calm 10 Clear CLR 77 54     44%   76 30.01        
Aug 16 18:35 Calm 10 Clear CLR 79 52     39%   78 30.01        
Aug 16 18:15 Calm 10 Clear CLR 79 52     39%   78 30.01        
Aug 16 17:55 NNE 3 10 Clear CLR 79 52     39%   78 30.01        
Aug 16 17:35 Calm 10 Clear CLR 79        %     30.01        
Aug 16 17:15 Calm 10 Clear CLR 79 50     37%   78 30.01        
Aug 16 16:55 N 3 10 Clear CLR 79        %     30.01        
Aug 16 16:35 E 3 10 Clear CLR 79 52     39%   78 30        
Aug 16 16:15 ENE 5 10 Clear CLR 79 52     39%   78 30.01        
Aug 16 15:55 ESE 5 10 Clear CLR 79 54     42%   78 30.01        
Aug 16 15:35 E 6 10 Clear CLR 79 54     42%   78 30.01        
Aug 16 15:15 ESE 5 10 Clear CLR 79 54     42%   78 30.01        
Aug 16 14:55 E 7 10 Clear CLR 79 54     42%   78 30        
Aug 16 14:35 E 3 10 Clear CLR 77 55     47%   77 30        
Aug 16 14:15 E 6 10 Clear CLR 77 55     47%   77 30.01        
Aug 16 13:55 Calm 10 Clear CLR 75 57     54%   75 30.01        
Aug 16 13:35 E 6 10 Clear CLR 77 57     50%   77 30.01        
Aug 16 13:15 E 5 10 Clear CLR 75 55     50%   75 30.02        
Aug 16 12:55 E 6 10 Clear CLR 75 59     57%   75 30.02        
Aug 16 12:35 E 3 10 Clear CLR 75 57     54%   75 30.02        
Aug 16 12:15 ESE 5 10 Clear CLR 75 61     61%   75 30.03        
Aug 16 11:55 E 5 10 Clear CLR 73 57     57%   73 30.03        
Aug 16 11:35 Calm 10 Clear CLR 72 59     65%   71 30.04        
Aug 16 11:15 Calm 10 Clear CLR 70 61     73%     30.04        
Aug 16 10:55 ENE 3 7 Clear CLR 64 63     94%     30.04        
Aug 16 10:35 NE 3 10 Clear CLR 64 63     94%     30.04        
Aug 16 10:15 Calm 10 Partly Cloudy SCT004 64 61     88%     30.04        
Aug 16 09:55 Calm 10 Mostly Cloudy BKN004 63 61     94%     30.04        
Aug 16 09:35 Calm 3 Fog/Mist OVC002 61 59     94%     30.05        
Aug 16 09:15 Calm 2 Fog/Mist OVC002 61 57     88%     30.05        
Aug 16 08:55 Calm 0.5 Fog OVC002 61 57     88%     30.04        
Aug 16 08:36 Calm 0.25 Fog OVC002 61 57     88%     30.04        
Aug 16 08:15 Calm 0.25 Fog OVC002 61 57     88%     30.03        
Aug 16 07:55 Calm 0.25 Fog OVC002 59 57     94%     30.03        
Aug 16 07:35 Calm 0.25 Fog OVC002 59 57     94%     30.03        
Aug 16 07:15 Calm 0.25 Fog OVC002 59 55     88%     30.03        
Aug 16 06:55 Calm 0.25 Fog OVC002 59 55     88%     30.02        
Aug 16 06:35 Calm 0.25 Fog OVC002 59 55     88%     30.02        
Aug 16 06:15 NE 3 0.25 Fog OVC002 59 55     88%     30.01        
Aug 16 05:55 Calm 0.25 Fog OVC002 59 55     88%     30        
Aug 16 05:35 Calm 0.25 Fog OVC002 59 57     94%     30        
Aug 16 05:15 Calm 0.25 Fog OVC002 59 57     94%     29.99        
Aug 16 04:55 ESE 3 0.25 Fog OVC002 59 57     94%     30        
Aug 16 04:35 Calm 0.25 Fog OVC002 59 57     94%     30        
Aug 16 04:15 Calm 0.25 Fog OVC002 59 57     94%     30        
Aug 16 03:55 E 3 0.25 Fog OVC002 59 57     94%     30        
Aug 16 03:35 E 3 0.25 Fog OVC002 59 57     94%     30        
Aug 16 03:15 Calm 0.25 Fog OVC002 59 57     94%     30        
Aug 16 02:55 Calm 0.25 Fog OVC002 61 57     88%     30        
Aug 16 02:35 Calm 0.25 Fog OVC002 61 57     88%     30        
Aug 16 02:15 Calm 0.25 Fog OVC002 61 57     88%     30        
Aug 16 01:55 Calm 0.25 Fog OVC002 61 57     88%     30        
Aug 16 01:35 E 5 0.25 Fog OVC002 61 57     88%     30        
Aug 16 01:15 E 5 0.25 Fog OVC002 61 57     88%     29.99        
Aug 16 00:55 E 3 0.25 Fog OVC002 61 57     88%     30        
Aug 16 00:35 Calm 0.75 Fog/Mist OVC002 61 57     88%     30        
Aug 16 00:15 ESE 3 1.25 Fog/Mist OVC002 61 57     88%     30.01        
Aug 15 23:55 E 6 1 Fog/Mist OVC002 61 57     88%     30        
Aug 15 23:35 E 5 0.75 Fog/Mist OVC002 61 57     88%     30        
Aug 15 23:15 E 5 0.5 Fog OVC002 59 57     94%     30        
Aug 15 22:55 Calm 0.5 Fog OVC002 59 57     94%     30        
Aug 15 22:35 E 7 0.75 Fog/Mist OVC002 59 57     94%     30        
Aug 15 22:15 E 6 0.5 Fog OVC002 59 57     94%     30        
Aug 15 21:55 E 5 0.5 Fog OVC002 61 57     88%     30        
Aug 15 21:35 Calm 3 Fog/Mist OVC002 61 57     88%     30        
Aug 15 21:15 ESE 6 4 Fog/Mist OVC002 61 57     88%     30        
Aug 15 20:55 E 6 10 Mostly Cloudy BKN004 61 57     88%     29.99        
Aug 15 20:35 ESE 5 10 Partly Cloudy SCT004 61 57     88%     29.98        
Aug 15 20:15 ESE 3 10 Clear CLR 63 57     83%     29.98        
Aug 15 19:55 ESE 5 10 Clear CLR 64 57     77%     29.97        
Aug 15 19:35 ESE 5 10 Clear CLR 66 57     73%     29.96        
Aug 15 19:15 ESE 5 10 Clear CLR 68 57     68%     29.96        
Aug 15 18:55 ESE 3 10 Clear CLR 70 57     64%     29.96        
Aug 15 18:35 ESE 5 10 Clear CLR 70 57     64%     29.97        
Aug 15 18:15 ESE 5 10 Clear CLR 72 57     60%   71 29.97        
Aug 15 17:55 E 5 10 Clear CLR 72 55     57%   71 29.97        
Aug 15 17:35 SSE 5 10 Clear CLR 72 55     57%   71 29.97        
Aug 15 17:15 ESE 5 10 Clear CLR 72 55     57%   71 29.97        
Aug 15 16:55 E 5 10 Partly Cloudy SCT034 72 55     57%   71 29.97        
Aug 15 16:35 ESE 7 10 Partly Cloudy SCT034 72 57     60%   71 29.97        
Aug 15 16:15 E 6 10 Partly Cloudy SCT036 73 57     57%   73 29.97        
Aug 15 15:55 ESE 6 10 Clear CLR 73 57     57%   73 29.97        
Aug 15 15:35 E 5 10 Partly Cloudy SCT030 73 57     57%   73 29.98        
Aug 15 15:15 Calm 10 Partly Cloudy SCT030 72 57     60%   71 29.98        
Aug 15 14:55 Calm 10 Clear CLR 72 57     60%   71 29.98        
May 15 12:55 ESE 10 5 Haze CLR 57 28     33%     30.09        
May 15 10:15 ESE 9 5 Haze CLR 54 30     41%     30.1        
May 15 04:15 NW 3 10 Clear   48 25     40% 47   30.03        
May 15 01:15 N 11 10 Clear CLR 59 25     27%     29.95        
May 15 00:15 N 6 10 Clear CLR 61 27     27%     29.93        
May 14 22:55 NNW 7 10 Clear CLR 63 30     29%     29.9        
May 14 20:35 WNW 3 10 Clear CLR 68 48     49%              
May 14 20:15 W 6 10 Clear CLR 70 48     46%     29.84        
Notice The following observation data may not be complete
May 14 18:35   10 Mostly Cloudy BKN100          %              
May 14 12:15 W 8 10 Partly Cloudy SCT065 77 41     28%   76 29.86        
May 14 05:55 W 6 10 Clear CLR 55 41     58%     29.87        
May 13 17:15 W 14 10 Clear CLR 73        %     29.88        
May 13 12:55 W 7 10 Clear CLR 68        %     29.96        
May 13 07:55 W 3 10 Clear CLR 48 30     50% 47   30.04        
Notice The following observation data may not be complete
May 13 04:35   10 Clear CLR          %              
May 13 03:35 Calm 10 Clear CLR 30 25     80%     30.05        
May 12 17:35 ESE 5 10 Clear CLR 59 18     20%     30.11        
May 12 13:35 ESE 8 10 Clear CLR 61        %     30.13        
May 12 08:35 E 5 10 Clear CLR 45 21     39% 42   30.17        
May 12 07:55 Calm 10 Clear CLR 39 25     56%     30.16        
May 12 07:15 Calm 10 Clear CLR 34 23     64%     30.16        
May 12 02:55 Calm 10 Clear CLR 28 19     69%     30.12        
May 11 22:55 Calm 10 Clear CLR 36 14     41%     30.11        
May 11 20:15 E 7 10 Clear CLR 43        % 39   30.07        
May 11 18:55 ESE 9 10 Clear CLR 46        % 42   30.07        
May 11 13:15 E 11 10 Clear CLR 52 16     24%     30.08        
May 11 09:35 E 8 10 Clear CLR 45 25     45% 40   30.12        
Jun 12 05:55 Calm 0.5 Fog VV005 55 52     88%     29.86        
Jun 12 01:55 Calm 7 Clear CLR 57 55     94%     29.8        
Jun 11 22:15 Calm 10 Clear CLR 57 55     94%     29.75        
Jun 11 21:35 Calm 7 Clear CLR 61 55     82%     29.74        
Notice The following observation data may not be complete
Jun 11 20:14   10 Clear CLR          %              
Jun 11 18:15 SE 6 10 Cloudy OVC023 64 57     77%     29.72        
Jun 11 14:15 SSW 3 10 Clear CLR 63 54     72%     29.75        
Jun 10 23:35 W 6 10 Clear CLR 66 52     60%     29.66        
Jun 10 21:55 W 7 10 Clear CLR 72 54     53%   71          
Jun 10 19:35 W 10 10 Clear CLR 81 54     39%   80 29.51        
Notice The following observation data may not be complete
Jun 10 19:15   10 Clear CLR          %              
Jun 10 17:55   10 Clear CLR 84 57     40%   83 29.45        
Jun 10 16:35 WSW 23 10 Partly Cloudy and Windy SCT050 SCT055 88 61     40%   88 29.4        
Jun 10 11:55 SSW 21 10 Clear and Windy CLR 84 61     45%   84 29.37        
Jun 09 22:15 E 8 10 Clear CLR 54 46     77%     29.68        
Jun 09 20:35 E 8 10 Clear CLR 57 48     72%     29.7        
Jun 09 13:55 ESE 8 10 Clear CLR 72 55     57%   71 29.82        
Notice The following observation data may not be complete
Jun 09 10:34   10 Clear CLR          %              
Jun 09 08:55 E 8 10 Clear CLR 63 55     77%     29.89        
Jun 08 23:15 E 5 10 Clear CLR 57 50     77%     29.88        
Jun 08 21:55 Calm 10 Mostly Cloudy BKN090 61 48     63%     29.88        
Jun 08 21:15 Calm 10 Partly Cloudy SCT080 63 48     59%     29.87        
Jun 08 14:35 NNW 11 10 Cloudy BKN050 BKN060 OVC080 75 54     47%   75 29.87        
Jun 08 11:14 NNW 10 10 Clear CLR 73 54     50%   73 29.89        
Jun 08 10:35 NNW 10 10 Partly Cloudy SCT037 72 54     53%   71 29.89        
Jun 07 21:35 SSW 3 10 Light Rain SCT120 66 50     56%     29.98        
Jun 07 13:55 S 7 10 Clear CLR 79 43     28%   78 30.04        
Jun 07 11:55 S 10 10 Clear CLR 75 43     31%   74 30.09        
Jun 07 11:35 SSE 9 7 Clear CLR 73 45     36%   72 30.09        
Jun 06 13:55 SE 3 10 Clear CLR 73 37     27%   72 30.13        
Jun 06 11:35 SSW 7 10 Clear CLR 70 30     23%     30.16        
Jun 06 05:55 Calm 10 Clear CLR 39 36     87%     30.15        
Jun 06 05:35 Calm 10 Clear CLR 41 36     81%     30.14        
Jun 06 01:35 Calm 10 Clear CLR 43 37     81%     30.12        
Jun 05 21:55 E 3 10 Clear CLR 55 36     47%     30.1        
Notice The following observation data may not be complete
Jun 05 20:15   10 Clear CLR          %